Theta_e
315 317 318 316 316 316 316 318 319 318 316 316 317 317 316 316 316 316 316 317 317 319 319 319 320 321 322 321 322 322 323 325 329 332 335 337 336 327 324 324 329 329 325 320
315 316 314 313 315 316 316 317 318 316 314 314 314 314 313 312 313 313 314 314 314 314 316 317 318 320 321 321 322 323 324 327 330 332 331 330 327 318 318 319 320 320 319 319
316 314 311 313 314 316 316 317 316 316 314 312 313 314 314 313 312 312 312 312 313 313 314 314 316 318 320 321 322 323 325 329 330 329 329 321 313 310 308 307 311 309 314 311
314 313 312 313 314 314 315 312 313 313 314 317 313 317 315 314 314 313 313 313 313 313 314 314 314 316 318 320 322 323 325 327 328 325 320 318 320 314 308 305 304 307 305 303
314 313 314 313 313 312 314 312 312 313 315 314 315 316 315 314 314 313 313 314 313 313 313 314 314 314 316 319 322 323 325 326 323 321 322 323 321 315 307 302 298 299 298 297
312 311 312 313 312 312 312 313 313 313 315 319 315 316 315 314 314 314 312 312 312 312 313 313 313 314 315 318 323 323 323 323 321 322 322 324 318 308 302 298 295 296 295 295
314 314 312 312 313 312 313 315 317 319 318 317 312 314 315 312 312 312 313 312 312 312 312 313 316 316 317 318 322 323 322 321 320 320 321 320 311 307 304 298 296 295 294 294
317 318 314 313 313 313 314 314 317 317 315 314 311 314 313 312 312 312 312 312 311 312 314 313 315 318 318 319 322 322 321 319 318 318 317 313 307 302 298 296 295 294 294 293
317 314 310 313 312 312 314 316 313 316 315 317 313 311 312 311 311 311 311 311 312 313 313 314 313 316 318 320 322 321 320 317 316 316 310 303 301 299 297 295 295 294 294 292
313 316 310 311 312 312 314 312 315 316 315 314 313 312 313 311 311 311 310 311 312 312 313 315 314 315 317 320 321 320 318 315 314 311 307 301 298 297 297 295 294 293 292 292
312 311 311 310 312 313 313 314 315 313 314 316 315 314 310 310 309 310 309 311 312 314 315 316 314 315 318 320 320 317 315 312 309 306 302 298 296 297 295 294 293 293 292 291
311 312 313 312 310 310 311 312 313 317 315 315 316 316 310 310 310 310 310 310 312 315 316 316 315 317 318 317 316 314 310 308 304 301 298 295 294 294 294 293 292 292 291 290
311 313 315 314 314 311 312 312 312 314 314 317 318 315 310 309 308 309 310 310 311 315 314 313 312 313 315 313 312 309 306 301 299 297 294 293 293 293 293 292 291 291 290 290
311 313 313 315 316 316 317 314 313 314 316 316 317 315 312 311 311 311 311 311 314 316 313 311 312 312 312 311 308 303 298 295 294 293 293 292 293 293 292 291 290 290 289 289
311 315 314 314 313 314 315 316 316 315 315 316 315 315 315 313 313 312 312 314 315 316 312 310 309 309 308 304 299 295 293 292 292 292 292 292 292 291 290 289 289 289 289 288
312 316 316 315 314 315 317 318 318 317 316 315 315 316 313 313 313 312 312 313 316 315 312 308 307 306 302 297 294 293 292 291 291 291 290 291 290 290 289 289 288 288 288 287
314 315 316 320 316 318 325 323 321 320 317 316 318 315 313 313 313 313 315 315 316 315 310 307 305 301 298 295 293 292 291 292 291 291 291 290 290 289 289 288 288 288 288 287
315 315 316 320 319 327 324 319 319 319 318 315 314 314 314 314 314 315 313 313 314 314 309 306 301 297 295 294 293 292 292 292 292 291 290 289 289 288 288 288 288 287 287 287
314 315 319 321 322 320 320 318 316 319 321 317 316 315 315 314 315 313 309 313 316 311 307 304 298 296 296 294 293 293 293 292 291 291 289 289 288 288 287 287 287 287 286 286
313 313 317 321 322 324 320 316 313 316 325 315 317 315 316 316 323 316 309 310 306 306 303 300 297 297 296 294 294 293 292 292 290 289 288 288 288 288 288 287 286 285 285 285
320 318 318 320 322 321 317 316 313 319 318 313 313 315 316 319 311 306 307 307 305 302 300 298 297 296 294 293 293 292 291 290 289 288 288 287 287 287 286 286 285 285 285 284
320 321 323 322 323 323 314 318 320 316 313 312 312 312 314 307 303 303 302 301 300 299 297 295 293 292 292 292 292 292 290 288 287 287 286 285 286 285 286 285 285 284 284 284
320 319 321 319 320 316 314 315 313 310 310 310 309 309 308 304 302 299 300 299 297 295 295 295 294 293 293 292 290 288 286 286 286 285 285 286 285 285 285 285 285 285 284 284
316 314 320 320 319 317 314 311 308 307 307 305 305 305 305 302 300 298 297 296 295 294 294 293 292 291 290 288 287 286 286 286 286 286 285 285 285 284 284 284 284 284 284 283
318 315 318 319 318 317 312 310 307 305 303 302 301 301 301 300 298 297 295 293 293 292 292 292 290 289 288 287 286 286 286 286 286 286 285 285 285 284 284 283 283 283 283 282
314 318 319 321 316 315 312 308 305 305 302 300 300 298 298 298 296 295 293 292 291 290 289 289 288 287 286 286 285 285 285 286 286 285 285 285 284 284 283 283 283 281 280 281
Wind_Speed
6 7 11 14 14 12 5 7 11 10 9 17 19 22 21 21 24 24 23 22 23 23 20 24 23 21 19 20 20 19 16 15 18 21 24 25 24 18 18 18 22 27 26 23
6 12 12 8 11 13 14 16 17 15 13 14 19 33 24 25 29 26 25 25 25 25 24 23 26 27 23 21 20 19 18 18 21 20 22 21 19 14 22 23 23 25 25 22
8 3 3 14 11 13 16 16 15 17 16 18 21 27 15 8 14 17 22 25 25 25 24 23 24 28 26 23 21 19 18 19 21 21 20 18 17 19 16 20 24 22 24 22
9 11 7 9 12 13 14 8 12 13 8 6 3 12 18 16 15 14 15 16 18 19 20 22 22 25 29 26 21 19 19 21 22 25 23 25 22 22 19 21 23 25 22 20
4 6 10 14 15 10 7 5 7 8 11 14 15 7 14 5 13 12 16 17 14 14 16 19 20 26 26 25 22 21 21 22 23 25 23 24 21 20 23 20 25 26 24 21
10 2 5 10 9 13 2 6 9 10 6 8 17 16 20 14 12 10 9 9 10 10 12 15 19 20 23 23 20 22 24 24 23 25 24 27 28 29 28 25 30 29 23 18
8 17 8 8 7 8 10 3 3 4 6 8 2 10 22 10 5 13 20 19 13 14 13 13 13 14 19 21 21 23 24 24 25 25 26 26 27 28 31 32 35 24 25 17
5 4 14 11 15 5 15 9 5 6 6 8 4 11 10 11 10 16 17 12 11 12 12 13 13 12 18 23 25 25 26 24 25 25 26 24 27 27 31 30 31 23 19 17
5 4 2 9 4 11 5 9 12 14 20 15 11 22 24 25 22 20 20 17 10 10 13 11 13 11 16 20 25 27 27 25 26 26 26 25 29 31 27 33 29 23 17 17
2 4 5 3 5 11 12 3 4 6 5 10 13 20 14 14 9 7 9 9 8 11 14 12 10 10 15 19 23 23 23 24 26 27 26 25 28 30 34 33 28 21 18 17
6 4 3 3 11 13 10 8 7 8 9 6 14 9 2 10 10 15 4 4 9 11 14 13 9 9 13 17 21 23 24 26 26 25 25 27 32 34 32 26 21 20 18 16
11 4 8 15 11 13 15 15 19 9 13 11 16 23 7 12 9 4 4 9 9 11 11 10 5 7 13 18 21 24 25 25 25 26 28 29 34 32 26 23 20 19 18 15
11 5 4 4 3 5 8 16 23 21 16 21 10 14 6 6 6 5 10 13 13 10 7 3 3 8 11 18 22 24 24 25 26 29 32 35 30 26 23 22 20 18 16 14
11 4 8 10 14 3 9 16 19 18 13 22 25 32 22 11 19 22 21 18 12 9 4 2 5 9 13 19 23 25 25 25 29 31 33 31 28 25 23 20 18 17 14 13
7 5 13 20 23 24 25 27 27 20 26 19 32 19 23 18 18 19 14 12 11 7 3 5 7 10 13 20 22 25 26 27 30 31 29 26 26 23 21 19 17 15 12 10
7 4 3 15 23 22 23 23 22 20 18 20 26 26 24 22 15 15 16 14 10 5 5 7 9 12 13 20 22 26 27 28 30 30 27 26 24 22 20 18 15 13 11 9
5 2 2 6 12 22 7 6 12 15 8 7 10 15 10 12 11 9 10 7 9 4 8 10 12 12 16 20 26 27 28 29 29 27 24 23 23 21 18 16 14 11 9 7
4 4 2 6 11 4 5 7 11 10 9 8 11 11 11 11 11 10 10 9 5 9 10 12 12 13 19 24 26 30 29 27 26 24 23 21 21 19 17 14 12 9 7 5
16 8 3 3 5 13 8 8 6 4 6 7 10 12 10 12 12 4 10 5 7 10 12 13 18 20 23 25 28 29 26 25 24 23 21 20 19 18 15 12 10 7 5 3
10 11 5 2 3 4 5 11 4 4 2 4 7 11 10 9 4 6 10 10 10 12 16 19 21 23 25 24 27 27 25 24 22 21 20 18 16 15 13 11 8 6 4 1
3 3 9 7 4 9 5 13 1 3 4 5 3 5 6 4 4 4 6 10 10 12 20 21 21 22 23 24 25 24 23 21 21 21 19 16 14 13 11 9 6 5 2 1
6 5 4 4 5 5 3 8 4 6 5 7 6 1 2 7 6 9 10 11 12 13 18 20 21 21 21 23 26 24 22 21 22 21 18 16 13 11 9 7 5 3 2 3
4 5 2 5 4 2 3 5 5 5 7 4 5 3 11 8 5 9 11 11 12 12 16 18 23 23 20 19 22 25 21 24 22 20 17 14 12 9 7 5 3 1 3 5
4 3 3 4 2 4 2 2 3 3 4 3 1 4 8 11 11 12 12 11 11 14 17 21 23 23 21 20 24 28 25 25 22 18 15 12 10 8 5 4 2 2 4 6
1 6 4 6 14 6 4 3 3 5 5 6 8 8 12 14 12 13 13 12 12 17 19 20 22 23 23 23 25 24 23 19 18 15 13 10 7 5 4 2 1 3 4 5
6 6 5 3 3 4 3 4 3 4 6 6 11 12 11 13 14 14 13 14 17 18 21 23 23 25 23 23 21 18 16 16 16 14 10 7 5 3 2 3 4 5 4 6
Wind_Direction
189 207 214 220 224 245 297 270 262 259 271 298 276 275 274 274 268 264 260 257 258 256 255 254 251 248 241 235 233 233 225 215 201 196 193 192 188 178 171 175 181 180 179 176
178 232 237 241 236 242 254 264 268 280 280 282 289 284 283 270 260 257 255 256 254 252 250 248 243 243 236 232 227 224 218 205 196 197 191 190 178 165 170 165 169 171 171 174
199 144 231 205 215 233 242 253 264 273 298 286 284 283 263 266 254 257 251 253 257 254 248 243 240 233 233 230 226 219 210 199 192 186 177 162 148 147 143 151 159 159 165 167
234 236 199 190 223 230 260 253 255 268 278 276 38 290 286 280 276 263 260 248 245 247 247 246 245 240 228 226 220 212 202 192 187 179 176 181 172 158 158 154 155 156 161 158
172 181 204 219 230 216 241 222 236 257 269 289 246 251 274 209 272 258 264 263 260 260 253 248 238 237 236 224 211 201 195 189 184 185 181 179 167 154 149 150 149 154 152 158
248 181 211 224 227 215 92 236 257 263 263 252 247 212 276 279 273 260 251 275 272 263 258 252 247 235 231 224 206 192 189 187 183 180 179 176 167 155 151 154 151 155 157 146
233 233 219 203 225 211 216 186 264 233 206 247 358 219 243 267 218 267 279 296 283 290 281 265 249 227 217 210 197 189 186 183 180 176 174 174 169 164 161 158 158 156 153 154
219 223 200 189 212 204 198 201 228 254 244 280 66 246 248 263 269 263 266 273 289 300 295 268 251 225 218 203 194 186 183 179 175 170 168 167 165 161 156 158 157 151 152 151
196 251 169 200 190 202 174 216 239 276 273 274 243 263 274 268 262 256 261 266 256 303 317 304 259 231 211 199 189 185 180 176 170 165 159 156 155 158 155 158 156 148 150 143
167 262 204 145 212 234 218 203 187 208 271 267 256 258 258 281 272 240 236 227 291 309 322 320 266 228 206 194 182 176 175 171 163 158 156 152 153 157 158 157 155 147 143 141
173 205 143 150 210 204 198 226 214 281 242 257 280 256 40 284 266 260 230 249 304 319 323 318 281 210 188 176 169 164 162 159 157 154 149 145 148 154 151 144 147 145 141 142
198 200 235 236 229 225 234 237 222 230 234 233 251 267 316 282 266 284 244 284 313 319 316 319 275 180 163 160 160 156 154 153 152 147 142 137 141 141 141 144 145 142 139 139
175 212 277 251 154 211 238 244 240 239 260 248 251 259 71 14 277 272 303 305 308 318 322 326 199 175 164 156 155 151 147 144 144 141 134 132 132 139 142 141 139 138 136 137
187 218 243 263 283 324 256 258 254 244 248 257 242 263 256 239 275 289 296 295 308 315 297 226 181 165 158 153 148 140 137 140 134 131 131 131 138 140 138 137 135 135 136 135
196 249 248 260 274 280 273 273 274 257 242 244 267 257 273 278 267 281 289 292 302 293 229 173 168 155 148 139 137 130 130 128 131 126 126 129 133 133 132 131 133 133 133 132
204 263 282 283 275 272 272 277 280 273 263 245 253 265 268 283 289 272 273 283 288 271 204 158 161 147 148 138 133 125 126 127 129 124 125 129 129 129 130 132 134 134 131 132
208 212 277 269 313 307 281 308 303 301 242 264 235 247 272 281 301 285 285 280 288 214 174 158 154 150 143 136 132 127 126 128 124 123 128 129 130 128 131 134 135 136 137 138
202 162 222 291 306 288 285 319 283 293 309 242 262 273 289 301 303 318 334 299 276 158 152 147 136 136 129 128 125 123 126 124 127 131 130 130 129 129 133 135 139 138 136 136
221 234 266 271 300 278 295 3 341 344 334 330 264 281 289 304 311 72 14 21 120 137 137 135 134 131 129 128 128 127 128 129 129 130 129 130 133 133 137 139 142 139 140 127
220 215 207 288 295 295 349 338 349 152 318 354 289 274 295 322 37 46 10 92 93 115 125 128 132 131 128 131 132 129 129 128 127 129 129 131 132 135 139 142 143 135 120 116
158 163 216 236 258 276 292 324 160 335 305 334 276 281 263 351 36 30 66 82 103 114 122 125 128 126 128 131 129 119 123 122 126 126 125 125 127 131 136 136 130 125 110 3
194 195 196 193 227 272 17 328 4 339 298 296 303 17 88 91 86 87 81 86 98 110 116 118 112 116 123 126 123 122 118 124 123 123 123 125 128 130 131 130 119 92 28 337
233 228 282 225 254 13 299 286 323 322 294 284 275 134 140 137 112 100 100 100 104 105 114 121 120 119 122 125 125 116 122 126 126 126 123 126 129 125 116 108 98 47 355 335
223 201 251 317 195 259 253 149 40 3 5 11 295 134 156 134 130 119 112 111 110 115 118 125 120 116 113 114 116 121 131 135 128 126 129 126 118 113 101 84 61 3 343 338
344 160 234 263 284 289 93 62 86 85 73 81 80 103 120 125 120 119 112 111 111 111 114 119 117 115 115 118 117 129 133 133 128 125 121 116 112 99 84 65 19 350 339 332
192 212 208 258 349 306 44 101 95 113 102 99 107 103 103 115 120 117 109 110 111 111 115 112 112 114 117 118 120 125 131 131 125 117 113 109 105 95 60 15 343 319 318 319